Regional Weather Roundup
Issued by NWS

Home | Current Version | Previous Version | Text Only | Print | Product List | Glossary On
Versions: 1 2 3 4 5 6 7 8 9 10 11 12 13 14 15 16 17 18 19 20 21 22 23 24 25 26 27
000
ASUS45 KBOI 280710
RWRID

IDAHO REGIONAL WEATHER ROUNDUP
NATIONAL WEATHER SERVICE BOISE ID
100 AM MDT SUN AUG 28 2016

NOTE: "FAIR" INDICATES FEW OR NO CLOUDS BELOW 12000 FEET
WITH NO SIGNIFICANT WEATHER AND/OR OBSTRUCTIONS TO VISIBILITY

IDZ012-014-280800-
SOUTHWEST IDAHO


CITY           SKY/WX    TMP DP  RH WIND       PRES   REMARKS
BOISE          CLEAR     72  31  22 SE9       29.88S
CALDWELL       CLEAR     61  46  57 NW3       29.88R
MOUNTAIN HOME  CLEAR     65  31  27 SE10      29.90S
$$

IDZ016-017-280800-
SOUTHCENTRAL IDAHO


CITY           SKY/WX    TMP DP  RH WIND       PRES   REMARKS
BURLEY         CLEAR     55  40  56 S3        29.99S
JEROME         CLEAR     61  35  37 E7        29.99S
TWIN FALLS     CLEAR     63  32  31 S12       29.99S
$$

IDZ019>023-280800-
SOUTHEAST IDAHO


CITY           SKY/WX    TMP DP  RH WIND       PRES   REMARKS
IDAHO FALLS    CLEAR     58  34  40 SW10      30.03R
POCATELLO      CLEAR     62  29  28 S8        30.02R
REXBURG        CLEAR     67  29  24 S9        30.02R
$$

IDZ006-010-011-018-031-032-280800-
CENTRAL IDAHO MOUNTAINS


CITY           SKY/WX    TMP DP  RH WIND       PRES   REMARKS
MCCALL         CLEAR     53  38  56 CALM      30.04R
HAILEY         CLEAR     54  32  43 NW8       30.09S
STANLEY          N/A     48  25  40 S3        30.16R
SALMON         PTCLDY    66  34  30 S3        29.93R
CHALLIS        CLOUDY    56  27  32 CALM      30.04R HAZE
$$

IDZ002-004-006-007-026-280800-
NORTHERN IDAHO


CITY           SKY/WX    TMP DP  RH WIND       PRES   REMARKS
LEWISTON       MOCLDY    77  50  38 NW13G22   29.84R
LOWELL           N/A     66  52  60 CALM      29.86R
COEUR D`ALENE  CLEAR     64  37  36 NE8       29.82R
MULLAN PASS    MOCLDY    56  39  53 W8        30.00R
$$




USA.gov is the U.S. government's official web portal to all federal, state and local government web resources and services.